Date String (YYYY-MM-DD hh:mm:ss) UTC,Instrument flags,absolute air pressure of the measurement (hPa),sample flow rate (lpm),inlet stack bypass flow (lpm),air temperature of the measurement (°C),ambient temperature measured by the external sensor (°C),aerosol sample conditioner tube jacket temperature (°C),OPC LED temperature (°C),internal box temperature (°C),relative humidity of the measurement (%),span deviation,mass concentration of particles derived from Lorenz-Mie calculation of OPC scattering (μg/m³),mass concentration of particles derived from Lorenz-Mie calculation of OPC scattering (μg/m³),mass concentration of particles derived from Lorenz-Mie calculation of OPC scattering (μg/m³)
DateTimeUTC,F1_M11,P_M11,Q1_M11,Q2_M11,T1_M11,T2_M11,T3_M11,T4_M11,T5_M11,U1_M11,ZSPAN_M11,X2_M11,X0_M11,X1_M11
2023-08-28 02:00:00,SystemResetWarning,0834.7,5.01,000.00,029.8,027.1,000.0,037.9,030.3,33.7,0000.0,0004.27,0006.52,0003.93
2023-08-28 02:01:00,SystemResetWarning,0835.2,4.99,000.00,029.8,026.0,000.0,037.8,030.2,33.5,0000.0,0004.28,0006.49,0003.93
2023-08-28 02:02:00,SystemResetWarning,0835.1,5.01,000.00,029.7,024.4,000.0,037.7,029.9,33.7,0000.0,0004.27,0006.47,0003.94
2023-08-28 02:03:00,SystemResetWarning,0834.8,5.00,000.00,029.6,023.8,000.0,037.6,029.7,34.0,0000.0,0004.29,0006.45,0003.95
2023-08-28 02:04:00,SystemResetWarning,0835.1,5.01,000.00,029.4,023.9,000.0,037.6,029.5,34.2,0000.0,0004.31,0006.44,0003.97
2023-08-28 02:05:00,SystemResetWarning,0835.2,4.99,000.00,029.3,024.3,000.0,037.6,029.5,36.4,0000.0,0004.36,0007.05,0003.99
2023-08-28 02:06:00,SystemResetWarning,0834.9,5.02,000.00,029.4,024.8,000.0,037.6,029.7,39.0,0000.0,0004.39,0007.14,0004.01
2023-08-28 02:07:00,SystemResetWarning,0835.0,5.00,000.00,029.7,025.3,000.0,037.6,030.0,39.9,0000.0,0004.40,0007.14,0004.02
2023-08-28 02:08:00,SystemResetWarning,0835.0,5.01,000.00,030.0,025.7,000.0,037.6,030.2,39.3,0000.0,0004.42,0007.17,0004.04
2023-08-28 02:09:00,SystemResetWarning,0835.0,5.00,000.00,030.4,026.0,000.0,037.7,030.4,38.4,0000.0,0004.42,0007.16,0004.05
2023-08-28 02:10:00,SystemResetWarning,0835.0,5.00,000.00,030.8,026.3,000.0,037.7,030.5,37.6,0000.0,0004.38,0007.00,0004.05
2023-08-28 02:11:00,SystemResetWarning,0835.0,5.00,000.00,031.2,026.6,000.0,037.9,030.7,36.4,0000.0,0004.36,0006.94,0004.04
2023-08-28 02:12:00,SystemResetWarning,0835.2,4.98,000.00,031.6,026.8,000.0,038.0,030.8,34.4,0000.0,0004.33,0006.80,0004.04
2023-08-28 02:13:00,SystemResetWarning,0835.2,5.00,000.00,031.9,026.9,000.0,038.2,030.9,34.7,0000.0,0004.31,0006.72,0004.04
2023-08-28 02:14:00,SystemResetWarning,0835.1,5.00,000.00,032.0,027.1,000.0,038.4,030.9,35.4,0000.0,0004.29,0006.69,0004.03
2023-08-28 02:15:00,SystemResetWarning,0835.2,5.03,000.00,032.3,027.3,000.0,038.6,031.0,34.9,0000.0,0004.25,0006.64,0004.01
2023-08-28 02:16:00,SystemResetWarning,0835.3,4.97,000.00,032.5,027.0,000.0,038.7,031.1,34.5,0000.0,0004.19,0006.06,0003.98
2023-08-28 02:17:00,SystemResetWarning,0835.3,5.01,000.00,032.7,025.3,000.0,038.8,030.9,34.2,0000.0,0004.13,0005.83,0003.94
2023-08-28 02:18:00,SystemResetWarning,0835.3,5.00,000.00,032.8,024.1,000.0,038.8,030.6,34.1,0000.0,0004.10,0005.83,0003.91
2023-08-28 02:19:00,SystemResetWarning,0835.2,5.00,000.00,032.6,024.0,000.0,038.9,030.3,34.2,0000.0,0004.09,0005.89,0003.89
2023-08-28 02:20:00,SystemResetWarning,0835.2,5.00,000.00,032.4,024.3,000.0,039.0,030.2,34.7,0000.0,0004.09,0007.41,0003.88
2023-08-28 02:21:00,SystemResetWarning,0835.2,4.99,000.00,032.3,024.8,000.0,039.2,030.3,35.4,0000.0,0004.09,0007.58,0003.86
2023-08-28 02:22:00,SystemResetWarning,0835.2,5.01,000.00,032.3,025.2,000.0,039.3,030.5,35.4,0000.0,0004.06,0007.54,0003.83
2023-08-28 02:23:00,SystemResetWarning,0835.3,5.01,000.00,032.6,025.7,000.0,039.4,030.8,35.1,0000.0,0004.01,0007.49,0003.78
2023-08-28 02:24:00,SystemResetWarning,0835.5,4.97,000.00,032.8,026.1,000.0,039.5,030.9,34.6,0000.0,0003.97,0007.42,0003.75
2023-08-28 02:25:00,SystemResetWarning,0835.6,4.99,000.00,032.9,026.4,000.0,039.5,031.0,34.4,0000.0,0003.93,0007.31,0003.71
2023-08-28 02:26:00,SystemResetWarning,0835.5,5.00,000.00,032.9,026.6,000.0,039.7,031.0,34.4,0000.0,0003.88,0007.28,0003.67
2023-08-28 02:27:00,SystemResetWarning,0835.6,5.01,000.00,032.9,026.9,000.0,039.8,031.1,34.3,0000.0,0003.87,0007.27,0003.65
2023-08-28 02:28:00,SystemResetWarning,0835.5,5.00,000.00,032.9,027.1,000.0,039.9,031.1,34.1,0000.0,0003.86,0007.27,0003.64
2023-08-28 02:29:00,SystemResetWarning,0835.6,4.99,000.00,032.9,027.2,000.0,040.0,031.1,34.1,0000.0,0003.85,0007.28,0003.64
2023-08-28 02:30:00,SystemResetWarning,0835.5,5.00,000.00,032.8,027.4,000.0,040.0,031.2,33.5,0000.0,0003.83,0007.16,0003.63
2023-08-28 02:31:00,SystemResetWarning,0835.5,4.99,000.00,032.8,027.4,000.0,040.1,031.2,32.6,0000.0,0003.81,0005.98,0003.63
2023-08-28 02:32:00,SystemResetWarning,0835.5,5.00,000.00,032.8,026.2,000.0,040.0,031.1,31.7,0000.0,0003.79,0005.25,0003.63
2023-08-28 02:33:00,SystemResetWarning,0835.5,5.00,000.00,032.8,024.6,000.0,039.9,030.9,32.0,0000.0,0003.80,0005.50,0003.64
2023-08-28 02:34:00,SystemResetWarning,0835.8,5.00,000.00,032.6,024.1,000.0,039.8,030.7,32.7,0000.0,0003.83,0006.08,0003.65
2023-08-28 02:35:00,SystemResetWarning,0835.5,5.01,000.00,032.4,024.2,000.0,039.8,030.4,33.1,0000.0,0003.86,0006.20,0003.66
2023-08-28 02:36:00,SystemResetWarning,0835.6,4.99,000.00,032.1,024.6,000.0,039.8,030.4,34.0,0000.0,0003.87,0006.22,0003.67
2023-08-28 02:37:00,SystemResetWarning,0835.6,4.99,000.00,032.0,025.1,000.0,039.8,030.5,34.3,0000.0,0003.89,0006.50,0003.69
2023-08-28 02:38:00,SystemResetWarning,0835.9,5.00,000.00,031.8,025.6,000.0,039.8,030.6,34.3,0000.0,0003.91,0006.63,0003.70
2023-08-28 02:39:00,SystemResetWarning,0835.8,5.01,000.00,031.7,026.0,000.0,039.8,030.7,34.4,0000.0,0003.94,0006.70,0003.70
2023-08-28 02:40:00,SystemResetWarning,0835.9,5.00,000.00,031.7,026.3,000.0,039.8,030.8,34.5,0000.0,0003.98,0006.80,0003.72
2023-08-28 02:41:00,SystemResetWarning,0835.9,4.98,000.00,031.6,026.6,000.0,039.7,030.8,34.7,0000.0,0004.04,0006.99,0003.77
2023-08-28 02:42:00,SystemResetWarning,0836.1,5.00,000.00,031.5,026.8,000.0,039.7,030.9,35.0,0000.0,0004.10,0007.28,0003.80
2023-08-28 02:43:00,SystemResetWarning,0836.1,5.00,000.00,031.5,027.0,000.0,039.7,030.9,35.2,0000.0,0004.17,0007.43,0003.83
2023-08-28 02:44:00,SystemResetWarning,0836.2,5.04,000.00,031.6,027.2,000.0,039.7,031.0,35.1,0000.0,0004.23,0007.45,0003.87
2023-08-28 02:45:00,SystemResetWarning,0836.3,4.96,000.00,031.7,027.3,000.0,039.6,031.1,34.7,0000.0,0004.24,0007.02,0003.88
2023-08-28 02:46:00,SystemResetWarning,0836.4,5.00,000.00,031.8,027.4,000.0,039.6,031.2,35.2,0000.0,0004.24,0006.99,0003.90
2023-08-28 02:47:00,SystemResetWarning,0836.5,5.00,000.00,032.0,026.2,000.0,039.5,031.0,35.7,0000.0,0004.27,0007.07,0003.92
2023-08-28 02:48:00,SystemResetWarning,0836.6,5.02,000.00,032.2,024.6,000.0,039.3,030.9,35.1,0000.0,0004.34,0007.21,0003.97
2023-08-28 02:49:00,SystemResetWarning,0836.7,5.00,000.00,032.4,024.1,000.0,039.2,030.9,34.3,0000.0,0004.42,0008.14,0004.02
2023-08-28 02:50:00,SystemResetWarning,0836.8,4.98,000.00,032.3,024.3,000.0,039.3,030.6,34.8,0000.0,0004.45,0008.40,0004.06
2023-08-28 02:51:00,SystemResetWarning,0836.8,5.03,000.00,032.3,024.7,000.0,039.4,030.6,35.3,0000.0,0004.50,0008.48,0004.10
2023-08-28 02:52:00,SystemResetWarning,0836.8,4.99,000.00,032.4,025.2,000.0,039.5,030.7,35.1,0000.0,0004.55,0008.58,0004.13
2023-08-28 02:53:00,SystemResetWarning,0837.0,5.00,000.00,032.6,025.6,000.0,039.6,030.9,34.6,0000.0,0004.61,0009.23,0004.16
2023-08-28 02:54:00,SystemResetWarning,0837.0,4.99,000.00,032.7,026.0,000.0,039.6,031.0,34.4,0000.0,0004.64,0009.59,0004.19
2023-08-28 02:55:00,SystemResetWarning,0837.1,5.00,000.00,032.8,026.3,000.0,039.7,031.0,34.5,0000.0,0004.71,0009.75,0004.22
2023-08-28 02:56:00,SystemResetWarning,0837.2,5.00,000.00,032.8,026.6,000.0,039.8,031.0,34.6,0000.0,0004.78,0010.01,0004.27
2023-08-28 02:57:00,SystemResetWarning,0837.2,5.00,000.00,032.7,026.8,000.0,039.9,031.1,34.8,0000.0,0004.87,0010.54,0004.34
2023-08-28 02:58:00,SystemResetWarning,0837.2,5.01,000.00,032.7,027.0,000.0,040.0,031.1,34.9,0000.7,0004.93,0010.72,0004.40
2023-08-28 02:59:00,SystemResetWarning,0837.2,4.99,000.00,032.7,027.1,000.0,040.1,031.2,35.1,0000.9,0004.96,0010.76,0004.44
